N5ZPR Weather Reports


Display with metric or nautical units.
time (UTC)temp
F
wind
direction
speed
MPH
gust
MPH
rain 1hr
in
rain 24hr
in
rain mn
in
humidity
%
barometer
mb
20260504021003 70 152 1.0 5.0 0.00 0.00 0.00 49 1013.1
20260504020003 71 169 1.0 5.0 0.00 0.00 0.00 48 1013.1
20260504014004 72 171 2.0 6.0 0.00 0.00 0.00 45 1013.1
20260504012003 73 143 2.0 7.0 0.00 0.00 0.00 44 1013.1
20260504011003 74 110 1.0 7.0 0.00 0.00 0.00 43 1013.2
20260504010004 74 161 3.0 7.0 0.00 0.00 0.00 42 1013.1
20260504005004 75 162 2.0 6.0 0.00 0.00 0.00 41 1013.1
20260504003003 76 156 3.0 7.0 0.00 0.00 0.00 40 1013.3
20260504002003 76 138 3.0 8.0 0.00 0.00 0.00 39 1013.3
20260504001003 77 143 3.0 12.0 0.00 0.00 0.00 38 1013.3
20260504000003 77 166 3.0 7.0 0.00 0.00 0.00 37 1013.3
20260503235003 78 154 2.0 8.0 0.00 0.00 0.00 36 1013.3
20260503234004 79 146 3.0 10.0 0.00 0.00 0.00 35 1013.6
20260503233003 79 223 3.0 8.0 0.00 0.00 0.00 34 1013.6
20260503232003 80 172 3.0 8.0 0.00 0.00 0.00 35 1013.6
20260503231004 80 139 3.0 12.0 0.00 0.00 0.00 33 1014.0
20260503230004 81 171 3.0 8.0 0.00 0.00 0.00 34 1014.0
20260503225003 80 200 4.0 9.0 0.00 0.00 0.00 33 1014.0
20260503223004 81 165 3.0 9.0 0.00 0.00 0.00 34 1014.0
20260503222004 81 154 3.0 9.0 0.00 0.00 0.00 33 1014.3
20260503220003 82 172 3.0 10.0 0.00 0.00 0.00 31 1014.3
20260503215004 82 190 6.0 12.0 0.00 0.00 0.00 32 1014.3
20260503214004 82 178 4.0 8.0 0.00 0.00 0.00 32 1015.6
20260503213003 82 164 5.0 12.0 0.00 0.00 0.00 32 1015.6
20260503212004 82 187 5.0 10.0 0.00 0.00 0.00 33 1015.6
20260503211004 83 166 3.0 8.0 0.00 0.00 0.00 33 1015.6
20260503210003 82 185 3.0 13.0 0.00 0.00 0.00 32 1015.6
20260503204004 82 150 2.0 12.0 0.00 0.00 0.00 32 1015.6
20260503203004 83 159 3.0 12.0 0.00 0.00 0.00 33 1016.0
20260503201003 82 154 5.0 10.0 0.00 0.00 0.00 31 1016.0
20260503200003 82 172 3.0 10.0 0.00 0.00 0.00 32 1016.8
20260503195004 82 113 3.0 10.0 0.00 0.00 0.00 34 1016.8
20260503194004 82 204 5.0 12.0 0.00 0.00 0.00 32 1016.8
20260503192003 82 195 3.0 10.0 0.00 0.00 0.00 34 1016.8
20260503191004 82 163 5.0 9.0 0.00 0.00 0.00 35 1017.4
20260503190003 82 221 2.0 12.0 0.00 0.00 0.00 37 1017.4
20260503185003 82 199 5.0 10.0 0.00 0.00 0.00 36 1017.4
20260503184004 81 230 2.0 12.0 0.00 0.00 0.00 36 1017.4
20260503183004 81 233 5.0 10.0 0.00 0.00 0.00 34 1017.9
20260503181004 80 220 5.0 12.0 0.00 0.00 0.00 35 1017.9
20260503175003 79 218 5.0 10.0 0.00 0.00 0.00 40 1019.4
20260503174003 79 219 4.0 12.0 0.00 0.00 0.00 40 1019.4
20260503172003 79 233 4.0 12.0 0.00 0.00 0.00 43 1019.4
20260503171003 78 186 2.0 8.0 0.00 0.00 0.00 45 1019.4
20260503151003 72 212 5.0 10.0 0.00 0.00 0.00 49 1019.5
20260503072004 61 217 1.0 3.0 0.00 0.00 0.00 65 1018.1
20260503071004 61 217 0.0 5.0 0.00 0.00 0.00 64 1018.1
20260503055004 60 149 2.0 3.0 0.00 0.00 0.00 66 1018.1
20260503054003 60 162 1.0 3.0 0.00 0.00 0.00 66 1017.7
20260503053003 61 156 1.0 3.0 0.00 0.00 0.00 66 1017.7
20260503052004 61 142 1.0 3.0 0.00 0.00 0.00 64 1017.7
20260503051003 61 159 0.0 3.0 0.00 0.00 0.00 63 1017.7
20260503050003 62 159 0.0 2.0 0.00 0.00 0.00 62 1017.7
20260503044003 62 160 1.0 3.0 0.00 0.00 0.00 61 1017.7
20260503043003 63 161 1.0 3.0 0.00 0.00 0.00 60 1017.6
20260503042004 63 170 1.0 3.0 0.00 0.00 0.00 60 1017.6
20260503041003 63 181 1.0 3.0 0.00 0.00 0.00 61 1017.6
20260503040004 62 178 1.0 5.0 0.00 0.00 0.00 61 1017.6
20260503035004 62 164 1.0 3.0 0.00 0.00 0.00 62 1017.6
20260503034004 62 173 1.0 3.0 0.00 0.00 0.00 62 1017.6
20260503033004 62 75 1.0 2.0 0.00 0.00 0.00 62 1017.6
20260503031003 62 346 0.0 0.0 0.00 0.00 0.00 65 1017.3
20260503030004 63 346 0.0 0.0 0.00 0.00 0.00 64 1017.3
20260503025004 63 346 0.0 0.0 0.00 0.00 0.00 62 1017.3
20260503024003 64 346 0.0 0.0 0.00 0.00 0.00 61 1017.1
20260503023003 64 346 0.0 0.0 0.00 0.00 0.00 60 1017.1
20260503022003 65 346 0.0 0.0 0.00 0.00 0.00 58 1016.7